BSAT-3B

Last updated on Sun Jun 21 2026 00:03:04 GMT+0000 (Coordinated Universal Time)

1 37207U 10056B 26171.41377874 -.00000354 00000+0 00000+0 0 9990 2 37207 0.0549 233.2297 0001685 298.8050 355.3840 1.00271984 52130
UTC large
Height (km)
Speed (km/s)
/
Latitude / Longitude
Inclination (degrees)
Orbital Period (minutes)
Azimuth
Elevation
Range (km)
Doppler Factor

Next 0 passes for location: London (51.5072 / 0.1276)

No passes found over London.
BSAT-3B